User: anonymous
Location: Laverne
(36.7100°N, 99.8930°W)
Time: 23:13:38
(UTC-05:00)
Language:

Iridium 32 - Orbit

View from above orbital plane
View from above orbital plane
View from above satellite
View from above satellite

Ground track
Ground track

The orbit data is extracted from the following two-line orbital elements,

1 24945U 97051B   14204.43676694  .00000026  00000-0  23118-5 0  9271
2 24945 086.3967 010.0766 0002145 107.5018 252.6413 14.34217118882529
Epoch (UTC): 23 July 2014 10:28:56
Eccentricity: 0.0002145
inclination: 86.3967°
perigee height: 776 km
apogee height: 779 km
right ascension of ascending node: 10.0766°
argument of perigee: 107.5018°
revolutions per day: 14.34217118
mean anomaly at epoch: 252.6413°
orbit number at epoch: 88252

The dashed part of the orbit path shows where the satellite is in the earth's shadow,  

DLR